Time,TemperatureF,DewpointF,PressureIn,WindDirection,WindDirectionDegrees,WindSpeedMPH,WindSpeedGustMPH,Humidity,HourlyPrecipIn,Conditions,Clouds,dailyrainin,SoftwareType,DateUTC
2013-10-04 00:00:00,63.4,60.1,29.56,SW,225,0.0,0.0,89,0.00,,,0.00,WUHU216HW,2013-10-04 04:00:00,
2013-10-04 00:01:00,63.4,60.1,29.56,SW,225,0.0,0.0,89,0.00,,,0.00,WUHU216HW,2013-10-04 04:01:00,
2013-10-04 00:02:00,63.4,60.1,29.56,SW,225,0.0,0.0,89,0.00,,,0.00,WUHU216HW,2013-10-04 04:02:00,
2013-10-04 00:03:00,63.4,60.1,29.56,SW,225,0.0,0.0,89,0.00,,,0.00,WUHU216HW,2013-10-04 04:03:00,
2013-10-04 00:04:00,63.4,60.1,29.56,SW,225,0.0,0.0,89,0.00,,,0.00,WUHU216HW,2013-10-04 04:04:00,
2013-10-04 00:05:00,63.2,59.9,29.56,SW,225,0.0,0.0,89,0.00,,,0.00,WUHU216HW,2013-10-04 04:05:00,
2013-10-04 00:06:00,63.2,59.9,29.56,SW,225,0.0,0.0,89,0.00,,,0.00,WUHU216HW,2013-10-04 04:06:00,
2013-10-04 00:07:00,63.2,59.9,29.56,SW,225,0.0,0.0,89,0.00,,,0.00,WUHU216HW,2013-10-04 04:07:00,
2013-10-04 00:08:00,63.2,59.9,29.56,SW,225,0.0,0.0,89,0.00,,,0.00,WUHU216HW,2013-10-04 04:08:00,
2013-10-04 00:09:00,63.2,59.9,29.56,SW,225,0.0,0.0,89,0.00,,,0.00,WUHU216HW,2013-10-04 04:09:00,
2013-10-04 00:10:00,63.2,59.9,29.56,SW,225,0.0,0.0,89,0.00,,,0.00,WUHU216HW,2013-10-04 04:10:00,
2013-10-04 00:11:00,63.0,59.8,29.56,SW,225,0.0,0.0,89,0.00,,,0.00,WUHU216HW,2013-10-04 04:11:00,
2013-10-04 00:12:00,63.0,59.8,29.56,SW,225,0.0,0.0,89,0.00,,,0.00,WUHU216HW,2013-10-04 04:12:00,
2013-10-04 00:13:00,63.2,59.9,29.56,SW,225,0.0,0.0,89,0.00,,,0.00,WUHU216HW,2013-10-04 04:13:00,
2013-10-04 00:14:00,63.0,59.8,29.56,SW,225,0.0,0.0,89,0.00,,,0.00,WUHU216HW,2013-10-04 04:14:00,
2013-10-04 00:15:00,63.0,59.8,29.56,SW,225,0.0,0.0,89,0.00,,,0.00,WUHU216HW,2013-10-04 04:15:00,
2013-10-04 00:16:00,63.0,59.8,29.56,SW,225,0.0,0.0,89,0.00,,,0.00,WUHU216HW,2013-10-04 04:16:00,
2013-10-04 00:17:00,63.0,59.8,29.56,SW,225,0.0,0.0,89,0.00,,,0.00,WUHU216HW,2013-10-04 04:17:00,
2013-10-04 00:18:00,63.0,59.8,29.56,SW,225,0.0,0.0,89,0.00,,,0.00,WUHU216HW,2013-10-04 04:18:00,
2013-10-04 00:19:00,63.0,59.8,29.56,SW,225,0.0,0.0,89,0.00,,,0.00,WUHU216HW,2013-10-04 04:19:00,
2013-10-04 00:20:00,63.0,59.8,29.56,SW,225,0.0,0.0,89,0.00,,,0.00,WUHU216HW,2013-10-04 04:20:00,
2013-10-04 00:21:00,63.0,59.8,29.56,SW,225,0.0,0.0,89,0.00,,,0.00,WUHU216HW,2013-10-04 04:21:00,
2013-10-04 00:22:00,63.0,59.8,29.56,SW,225,0.0,0.0,89,0.00,,,0.00,WUHU216HW,2013-10-04 04:22:00,
2013-10-04 00:23:00,63.0,59.8,29.56,SW,225,0.0,0.0,89,0.00,,,0.00,WUHU216HW,2013-10-04 04:23:00,
2013-10-04 00:24:00,63.0,59.8,29.56,SW,225,0.0,0.0,89,0.00,,,0.00,WUHU216HW,2013-10-04 04:24:00,
2013-10-04 00:25:00,63.0,59.8,29.56,SW,225,0.0,0.0,89,0.00,,,0.00,WUHU216HW,2013-10-04 04:25:00,
2013-10-04 00:26:00,63.0,59.8,29.56,SW,225,0.0,0.0,89,0.00,,,0.00,WUHU216HW,2013-10-04 04:26:00,
2013-10-04 00:27:00,63.0,59.8,29.56,SW,225,0.0,0.0,89,0.00,,,0.00,WUHU216HW,2013-10-04 04:27:00,
2013-10-04 00:28:00,63.0,59.8,29.56,SW,225,0.0,0.0,89,0.00,,,0.00,WUHU216HW,2013-10-04 04:28:00,
2013-10-04 00:29:00,63.0,59.8,29.56,SW,225,0.0,0.0,89,0.00,,,0.00,WUHU216HW,2013-10-04 04:29:00,
2013-10-04 00:30:00,63.0,59.8,29.56,SW,225,0.0,0.0,89,0.00,,,0.00,WUHU216HW,2013-10-04 04:30:00,
2013-10-04 00:31:00,63.0,59.8,29.56,SW,225,0.0,0.0,89,0.00,,,0.00,WUHU216HW,2013-10-04 04:31:00,
2013-10-04 00:32:00,63.0,59.8,29.56,SW,225,0.0,0.0,89,0.00,,,0.00,WUHU216HW,2013-10-04 04:32:00,
2013-10-04 00:33:00,63.0,59.8,29.56,SW,225,0.0,0.0,89,0.00,,,0.00,WUHU216HW,2013-10-04 04:33:00,
2013-10-04 00:34:00,63.0,59.8,29.55,SW,225,0.0,0.0,89,0.00,,,0.00,WUHU216HW,2013-10-04 04:34:00,
2013-10-04 00:35:00,62.8,59.6,29.55,SW,225,0.0,0.0,89,0.00,,,0.00,WUHU216HW,2013-10-04 04:35:00,
2013-10-04 00:38:00,63.0,59.8,29.55,SW,225,0.0,0.0,89,0.00,,,0.00,WUHU216HW,2013-10-04 04:38:00,
2013-10-04 00:42:00,63.0,60.1,29.56,SW,225,0.0,0.0,90,0.00,,,0.00,WUHU216HW,2013-10-04 04:42:00,
2013-10-04 00:43:00,63.0,60.1,29.55,SW,225,0.0,0.0,90,0.00,,,0.00,WUHU216HW,2013-10-04 04:43:00,
2013-10-04 00:44:00,63.2,60.3,29.56,SW,225,0.0,0.0,90,0.00,,,0.00,WUHU216HW,2013-10-04 04:44:00,
2013-10-04 00:45:00,63.2,60.3,29.55,SW,225,0.0,0.0,90,0.00,,,0.00,WUHU216HW,2013-10-04 04:45:00,
2013-10-04 00:46:00,63.2,60.3,29.55,SW,225,0.0,0.0,90,0.00,,,0.00,WUHU216HW,2013-10-04 04:46:00,
2013-10-04 00:51:00,63.7,60.8,29.55,West,270,0.0,0.9,90,0.00,,,0.00,WUHU216HW,2013-10-04 04:51:00,
2013-10-04 00:56:00,63.9,61.0,29.55,West,270,0.2,0.9,90,0.00,,,0.00,WUHU216HW,2013-10-04 04:56:00,
2013-10-04 00:57:00,63.7,60.8,29.55,West,270,0.2,0.9,90,0.00,,,0.00,WUHU216HW,2013-10-04 04:57:00,
2013-10-04 00:59:00,63.7,60.8,29.55,West,270,0.4,0.9,90,0.00,,,0.00,WUHU216HW,2013-10-04 04:59:00,
2013-10-04 01:02:00,63.7,60.8,29.55,West,270,0.0,0.9,90,0.00,,,0.00,WUHU216HW,2013-10-04 05:02:00,
2013-10-04 01:04:00,63.7,60.8,29.55,West,270,0.0,0.9,90,0.00,,,0.00,WUHU216HW,2013-10-04 05:04:00,
2013-10-04 01:06:00,63.7,60.8,29.55,West,270,0.0,0.9,90,0.00,,,0.00,WUHU216HW,2013-10-04 05:06:00,
2013-10-04 01:08:00,63.7,60.8,29.55,West,270,0.0,0.9,90,0.00,,,0.00,WUHU216HW,2013-10-04 05:08:00,
2013-10-04 01:10:00,63.9,61.0,29.55,West,270,0.0,0.4,90,0.00,,,0.00,WUHU216HW,2013-10-04 05:10:00,
2013-10-04 01:14:00,63.9,61.0,29.55,West,270,0.0,0.2,90,0.00,,,0.00,WUHU216HW,2013-10-04 05:14:00,
2013-10-04 01:16:00,63.9,61.0,29.55,West,270,0.0,0.2,90,0.00,,,0.00,WUHU216HW,2013-10-04 05:16:00,
2013-10-04 01:18:00,63.9,61.0,29.55,West,270,0.0,0.2,90,0.00,,,0.00,WUHU216HW,2013-10-04 05:18:00,
2013-10-04 01:26:00,63.7,60.8,29.55,West,270,0.0,0.0,90,0.00,,,0.00,WUHU216HW,2013-10-04 05:26:00,
2013-10-04 01:31:00,63.7,60.8,29.55,West,270,1.6,1.8,90,0.00,,,0.00,WUHU216HW,2013-10-04 05:31:00,
2013-10-04 01:36:00,64.1,61.2,29.55,West,270,0.9,2.5,90,0.00,,,0.00,WUHU216HW,2013-10-04 05:36:00,
2013-10-04 01:41:00,64.3,61.7,29.55,WNW,293,1.1,2.5,91,0.00,,,0.00,WUHU216HW,2013-10-04 05:41:00,
2013-10-04 01:46:00,64.4,61.8,29.55,West,270,0.4,2.2,91,0.00,,,0.00,WUHU216HW,2013-10-04 05:46:00,
2013-10-04 01:51:00,64.6,62.0,29.55,WNW,293,2.9,2.9,91,0.00,,,0.00,WUHU216HW,2013-10-04 05:51:00,
2013-10-04 01:56:00,64.8,62.2,29.55,West,270,1.3,3.8,91,0.00,,,0.00,WUHU216HW,2013-10-04 05:56:00,
2013-10-04 02:01:00,65.0,62.4,29.56,SW,225,2.5,3.8,91,0.00,,,0.00,WUHU216HW,2013-10-04 06:01:00,
2013-10-04 02:06:00,65.2,62.5,29.55,WNW,293,2.0,3.1,91,0.00,,,0.00,WUHU216HW,2013-10-04 06:06:00,
2013-10-04 02:11:00,65.2,62.5,29.56,WSW,248,0.7,2.5,91,0.00,,,0.00,WUHU216HW,2013-10-04 06:11:00,
2013-10-04 02:16:00,65.2,62.5,29.56,SW,225,1.6,2.0,91,0.00,,,0.00,WUHU216HW,2013-10-04 06:16:00,
2013-10-04 02:21:00,65.3,62.4,29.56,WSW,248,0.4,2.0,90,0.00,,,0.00,WUHU216HW,2013-10-04 06:21:00,
2013-10-04 02:26:00,65.3,62.4,29.56,West,270,1.8,1.8,90,0.00,,,0.00,WUHU216HW,2013-10-04 06:26:00,
2013-10-04 02:31:00,65.3,62.4,29.56,West,270,0.7,1.8,90,0.00,,,0.00,WUHU216HW,2013-10-04 06:31:00,
2013-10-04 02:36:00,65.3,62.4,29.56,West,270,0.0,1.8,90,0.00,,,0.00,WUHU216HW,2013-10-04 06:36:00,
2013-10-04 02:41:00,65.3,62.4,29.56,West,270,0.0,0.9,90,0.00,,,0.00,WUHU216HW,2013-10-04 06:41:00,
2013-10-04 02:46:00,65.3,62.4,29.56,West,270,0.0,0.0,90,0.00,,,0.00,WUHU216HW,2013-10-04 06:46:00,
2013-10-04 02:51:00,65.5,62.6,29.56,West,270,0.0,0.7,90,0.00,,,0.00,WUHU216HW,2013-10-04 06:51:00,
2013-10-04 02:56:00,65.3,62.4,29.57,West,270,1.3,1.3,90,0.00,,,0.00,WUHU216HW,2013-10-04 06:56:00,
2013-10-04 03:01:00,65.5,62.6,29.56,West,270,0.2,1.3,90,0.00,,,0.00,WUHU216HW,2013-10-04 07:01:00,
2013-10-04 03:06:00,65.5,62.6,29.57,West,270,0.4,1.1,90,0.00,,,0.00,WUHU216HW,2013-10-04 07:06:00,
2013-10-04 03:11:00,65.5,62.6,29.56,West,270,0.4,1.1,90,0.00,,,0.00,WUHU216HW,2013-10-04 07:11:00,
2013-10-04 03:16:00,65.5,62.6,29.56,West,270,0.0,0.9,90,0.00,,,0.00,WUHU216HW,2013-10-04 07:16:00,
2013-10-04 03:21:00,65.5,62.6,29.56,West,270,0.0,0.4,90,0.00,,,0.00,WUHU216HW,2013-10-04 07:21:00,
2013-10-04 03:26:00,65.3,62.4,29.56,West,270,0.0,0.7,90,0.00,,,0.00,WUHU216HW,2013-10-04 07:26:00,
2013-10-04 03:31:00,65.2,62.2,29.56,West,270,0.0,0.7,90,0.00,,,0.00,WUHU216HW,2013-10-04 07:31:00,
2013-10-04 03:36:00,65.2,62.2,29.56,WNW,293,0.0,1.8,90,0.00,,,0.00,WUHU216HW,2013-10-04 07:36:00,
2013-10-04 03:41:00,65.2,62.2,29.55,WNW,293,0.0,1.8,90,0.00,,,0.00,WUHU216HW,2013-10-04 07:41:00,
2013-10-04 03:46:00,65.2,62.2,29.55,WNW,293,0.0,0.4,90,0.00,,,0.00,WUHU216HW,2013-10-04 07:46:00,
2013-10-04 03:51:00,65.0,62.0,29.56,WNW,293,0.0,0.0,90,0.00,,,0.00,WUHU216HW,2013-10-04 07:51:00,
2013-10-04 03:56:00,64.8,61.9,29.55,WNW,293,0.0,0.0,90,0.00,,,0.00,WUHU216HW,2013-10-04 07:56:00,
2013-10-04 04:01:00,64.8,61.9,29.55,WNW,293,0.0,0.7,90,0.00,,,0.00,WUHU216HW,2013-10-04 08:01:00,
2013-10-04 04:06:00,64.6,61.8,29.55,WNW,293,0.0,0.7,90,0.00,,,0.00,WUHU216HW,2013-10-04 08:06:00,
2013-10-04 04:11:00,64.4,61.6,29.56,West,270,0.0,1.1,90,0.00,,,0.00,WUHU216HW,2013-10-04 08:11:00,
2013-10-04 04:16:00,64.4,61.6,29.55,West,270,0.0,1.1,90,0.00,,,0.00,WUHU216HW,2013-10-04 08:16:00,
2013-10-04 04:21:00,64.4,61.6,29.56,West,270,0.0,0.9,90,0.00,,,0.00,WUHU216HW,2013-10-04 08:21:00,
2013-10-04 04:26:00,64.4,61.6,29.56,West,270,0.0,1.1,90,0.00,,,0.00,WUHU216HW,2013-10-04 08:26:00,
2013-10-04 04:31:00,64.3,61.4,29.56,WSW,248,0.0,1.1,90,0.00,,,0.00,WUHU216HW,2013-10-04 08:31:00,
2013-10-04 04:36:00,64.1,61.2,29.56,WSW,248,0.0,0.7,90,0.00,,,0.00,WUHU216HW,2013-10-04 08:36:00,
2013-10-04 04:41:00,64.1,61.2,29.55,WSW,248,0.0,0.9,90,0.00,,,0.00,WUHU216HW,2013-10-04 08:41:00,
2013-10-04 04:46:00,63.9,61.0,29.55,West,270,0.0,1.1,90,0.00,,,0.00,WUHU216HW,2013-10-04 08:46:00,
2013-10-04 04:51:00,63.9,61.0,29.55,West,270,0.7,1.1,90,0.00,,,0.00,WUHU216HW,2013-10-04 08:51:00,
2013-10-04 04:56:00,63.7,60.8,29.55,West,270,0.2,1.3,90,0.00,,,0.00,WUHU216HW,2013-10-04 08:56:00,
2013-10-04 05:03:00,63.7,61.1,29.55,West,270,0.7,1.6,91,0.00,,,0.00,WUHU216HW,2013-10-04 09:03:00,
2013-10-04 05:08:00,63.7,61.1,29.55,WSW,248,0.7,1.3,91,0.00,,,0.00,WUHU216HW,2013-10-04 09:08:00,
2013-10-04 05:13:00,63.7,61.1,29.55,SW,225,1.1,1.1,91,0.00,,,0.00,WUHU216HW,2013-10-04 09:13:00,
2013-10-04 05:18:00,63.7,61.1,29.55,WNW,293,2.5,2.5,91,0.00,,,0.00,WUHU216HW,2013-10-04 09:18:00,
2013-10-04 05:23:00,63.7,61.1,29.56,West,270,0.2,2.5,91,0.00,,,0.00,WUHU216HW,2013-10-04 09:23:00,
2013-10-04 05:28:00,63.9,61.3,29.56,WNW,293,0.0,2.5,91,0.00,,,0.00,WUHU216HW,2013-10-04 09:28:00,
2013-10-04 05:33:00,64.1,61.5,29.56,WSW,248,0.7,2.5,91,0.00,,,0.00,WUHU216HW,2013-10-04 09:33:00,
2013-10-04 05:38:00,64.1,61.5,29.56,WSW,248,1.8,1.8,91,0.00,,,0.00,WUHU216HW,2013-10-04 09:38:00,
2013-10-04 05:43:00,64.3,61.7,29.56,West,270,0.4,1.8,91,0.00,,,0.00,WUHU216HW,2013-10-04 09:43:00,
2013-10-04 05:48:00,64.3,61.7,29.56,WSW,248,0.0,1.8,91,0.00,,,0.00,WUHU216HW,2013-10-04 09:48:00,
2013-10-04 05:53:00,64.1,61.5,29.55,West,270,1.6,1.6,91,0.00,,,0.00,WUHU216HW,2013-10-04 09:53:00,
2013-10-04 05:58:00,64.3,61.7,29.56,West,270,1.6,2.5,91,0.00,,,0.00,WUHU216HW,2013-10-04 09:58:00,
2013-10-04 06:03:00,64.3,61.7,29.56,WSW,248,1.3,2.7,91,0.00,,,0.00,WUHU216HW,2013-10-04 10:03:00,
2013-10-04 06:08:00,64.4,61.8,29.56,WSW,248,1.8,2.7,91,0.00,,,0.00,WUHU216HW,2013-10-04 10:08:00,
2013-10-04 06:13:00,64.4,61.8,29.56,SSW,203,1.3,2.2,91,0.00,,,0.00,WUHU216HW,2013-10-04 10:13:00,
2013-10-04 06:18:00,64.4,61.8,29.56,West,270,1.6,2.5,91,0.00,,,0.00,WUHU216HW,2013-10-04 10:18:00,
2013-10-04 06:23:00,64.4,61.8,29.57,West,270,0.4,2.7,91,0.00,,,0.00,WUHU216HW,2013-10-04 10:23:00,
2013-10-04 06:28:00,64.4,61.8,29.57,WSW,248,1.8,3.4,91,0.00,,,0.00,WUHU216HW,2013-10-04 10:28:00,
2013-10-04 06:33:00,64.6,62.0,29.57,WSW,248,1.1,3.4,91,0.00,,,0.00,WUHU216HW,2013-10-04 10:33:00,
2013-10-04 06:38:00,64.6,62.0,29.57,WNW,293,2.0,2.7,91,0.00,,,0.00,WUHU216HW,2013-10-04 10:38:00,
2013-10-04 06:43:00,64.6,62.0,29.57,WSW,248,0.7,2.7,91,0.00,,,0.00,WUHU216HW,2013-10-04 10:43:00,
2013-10-04 06:48:00,64.6,62.0,29.57,West,270,1.1,3.1,91,0.00,,,0.00,WUHU216HW,2013-10-04 10:48:00,
2013-10-04 06:53:00,64.4,61.8,29.57,WSW,248,2.5,3.1,91,0.00,,,0.00,WUHU216HW,2013-10-04 10:53:00,
2013-10-04 06:58:00,64.6,62.0,29.57,West,270,0.7,3.1,91,0.00,,,0.00,WUHU216HW,2013-10-04 10:58:00,
2013-10-04 07:03:00,64.6,62.0,29.58,WSW,248,0.9,3.1,91,0.00,,,0.00,WUHU216HW,2013-10-04 11:03:00,
2013-10-04 07:08:00,64.6,62.0,29.57,WSW,248,1.8,2.2,91,0.00,,,0.00,WUHU216HW,2013-10-04 11:08:00,
2013-10-04 07:13:00,64.6,62.0,29.58,SW,225,2.5,3.4,91,0.00,,,0.00,WUHU216HW,2013-10-04 11:13:00,
2013-10-04 07:18:00,64.6,62.0,29.58,South,180,1.1,3.4,91,0.00,,,0.00,WUHU216HW,2013-10-04 11:18:00,
2013-10-04 07:23:00,64.8,62.2,29.58,West,270,1.1,3.4,91,0.00,,,0.00,WUHU216HW,2013-10-04 11:23:00,
2013-10-04 07:28:00,64.6,62.0,29.58,WSW,248,1.3,3.1,91,0.00,,,0.00,WUHU216HW,2013-10-04 11:28:00,
2013-10-04 07:33:00,64.6,62.0,29.58,WSW,248,0.4,3.1,91,0.00,,,0.00,WUHU216HW,2013-10-04 11:33:00,
2013-10-04 07:38:00,64.6,62.0,29.58,WSW,248,1.8,2.5,91,0.00,,,0.00,WUHU216HW,2013-10-04 11:38:00,
2013-10-04 07:43:00,64.6,62.0,29.59,West,270,2.7,2.7,91,0.00,,,0.00,WUHU216HW,2013-10-04 11:43:00,
2013-10-04 07:48:00,64.4,61.8,29.58,WSW,248,0.9,3.8,91,0.00,,,0.00,WUHU216HW,2013-10-04 11:48:00,
2013-10-04 07:53:00,64.4,61.8,29.59,West,270,1.3,3.8,91,0.00,,,0.00,WUHU216HW,2013-10-04 11:53:00,
2013-10-04 07:58:00,64.4,61.8,29.59,West,270,2.9,2.9,91,0.00,,,0.00,WUHU216HW,2013-10-04 11:58:00,
2013-10-04 08:03:00,64.6,62.0,29.59,SSW,203,1.8,2.9,91,0.00,,,0.00,WUHU216HW,2013-10-04 12:03:00,
2013-10-04 08:08:00,64.8,62.2,29.59,SSW,203,2.9,3.4,91,0.00,,,0.00,WUHU216HW,2013-10-04 12:08:00,
2013-10-04 08:13:00,64.8,62.2,29.59,WSW,248,0.9,3.4,91,0.00,,,0.00,WUHU216HW,2013-10-04 12:13:00,
2013-10-04 08:18:00,64.8,62.2,29.60,WSW,248,0.7,2.9,91,0.00,,,0.00,WUHU216HW,2013-10-04 12:18:00,
2013-10-04 08:23:00,65.0,62.4,29.60,WSW,248,2.0,2.5,91,0.00,,,0.00,WUHU216HW,2013-10-04 12:23:00,
2013-10-04 08:28:00,65.2,62.5,29.60,WSW,248,1.1,2.5,91,0.00,,,0.00,WUHU216HW,2013-10-04 12:28:00,
2013-10-04 08:33:00,65.3,62.6,29.60,WNW,293,2.2,2.2,91,0.00,,,0.00,WUHU216HW,2013-10-04 12:33:00,
2013-10-04 08:38:00,65.5,62.8,29.60,WSW,248,0.0,2.2,91,0.00,,,0.00,WUHU216HW,2013-10-04 12:38:00,
2013-10-04 08:43:00,65.7,63.3,29.60,WSW,248,1.1,2.2,92,0.00,,,0.00,WUHU216HW,2013-10-04 12:43:00,
2013-10-04 08:48:00,65.9,63.5,29.60,WSW,248,0.2,1.3,92,0.00,,,0.00,WUHU216HW,2013-10-04 12:48:00,
2013-10-04 08:53:00,66.2,63.5,29.60,WSW,248,0.0,1.3,91,0.00,,,0.00,WUHU216HW,2013-10-04 12:53:00,
2013-10-04 08:58:00,66.6,63.8,29.60,West,270,0.0,1.6,91,0.00,,,0.00,WUHU216HW,2013-10-04 12:58:00,
2013-10-04 09:03:00,67.0,64.2,29.60,WNW,293,1.3,3.1,91,0.00,,,0.00,WUHU216HW,2013-10-04 13:03:00,
2013-10-04 09:08:00,67.7,64.9,29.60,West,270,1.6,3.1,91,0.00,,,0.00,WUHU216HW,2013-10-04 13:08:00,
2013-10-04 09:13:00,68.2,65.2,29.60,WSW,248,1.1,2.5,90,0.00,,,0.00,WUHU216HW,2013-10-04 13:13:00,
2013-10-04 09:18:00,68.8,65.7,29.60,WSW,248,2.5,4.7,90,0.00,,,0.00,WUHU216HW,2013-10-04 13:18:00,
2013-10-04 09:23:00,69.1,65.7,29.60,SW,225,0.7,4.7,89,0.00,,,0.00,WUHU216HW,2013-10-04 13:23:00,
2013-10-04 09:28:00,69.3,65.6,29.60,SSW,203,1.3,4.0,88,0.00,,,0.00,WUHU216HW,2013-10-04 13:28:00,
2013-10-04 09:33:00,69.5,65.7,29.60,WSW,248,1.3,2.7,88,0.00,,,0.00,WUHU216HW,2013-10-04 13:33:00,
2013-10-04 09:38:00,69.7,65.9,29.60,WNW,293,0.7,2.7,88,0.00,,,0.00,WUHU216HW,2013-10-04 13:38:00,
2013-10-04 09:43:00,69.5,65.4,29.60,West,270,1.1,3.8,87,0.00,,,0.00,WUHU216HW,2013-10-04 13:43:00,
2013-10-04 09:48:00,69.5,65.4,29.60,West,270,2.0,3.8,87,0.00,,,0.00,WUHU216HW,2013-10-04 13:48:00,
2013-10-04 09:53:00,69.7,65.3,29.61,West,270,2.0,4.7,86,0.00,,,0.00,WUHU216HW,2013-10-04 13:53:00,
2013-10-04 09:58:00,70.2,65.8,29.61,NNW,338,0.4,4.7,86,0.00,,,0.00,WUHU216HW,2013-10-04 13:58:00,
2013-10-04 10:03:00,70.7,65.6,29.61,WSW,248,2.2,2.5,84,0.00,,,0.00,WUHU216HW,2013-10-04 14:03:00,
2013-10-04 10:08:00,71.1,66.3,29.61,SW,225,1.8,2.5,85,0.00,,,0.00,WUHU216HW,2013-10-04 14:08:00,
2013-10-04 10:13:00,71.8,66.3,29.61,NW,315,0.7,4.7,83,0.00,,,0.00,WUHU216HW,2013-10-04 14:13:00,
2013-10-04 10:18:00,72.5,66.8,29.61,SSW,203,3.8,4.9,82,0.00,,,0.00,WUHU216HW,2013-10-04 14:18:00,
2013-10-04 10:23:00,73.1,67.3,29.60,SW,225,1.6,4.9,82,0.00,,,0.00,WUHU216HW,2013-10-04 14:23:00,
2013-10-04 10:28:00,73.6,67.5,29.60,West,270,0.9,4.7,81,0.00,,,0.00,WUHU216HW,2013-10-04 14:28:00,
2013-10-04 10:33:00,73.8,67.7,29.60,NW,315,1.1,3.8,81,0.00,,,0.00,WUHU216HW,2013-10-04 14:33:00,
2013-10-04 10:38:00,74.0,67.2,29.60,West,270,1.3,4.0,79,0.00,,,0.00,WUHU216HW,2013-10-04 14:38:00,
2013-10-04 10:43:00,74.0,67.5,29.60,SW,225,1.3,4.0,80,0.00,,,0.00,WUHU216HW,2013-10-04 14:43:00,
2013-10-04 10:48:00,74.3,67.5,29.60,West,270,0.4,4.7,79,0.00,,,0.00,WUHU216HW,2013-10-04 14:48:00,
2013-10-04 10:53:00,75.2,67.1,29.60,NW,315,1.1,4.7,76,0.00,,,0.00,WUHU216HW,2013-10-04 14:53:00,
2013-10-04 10:58:00,75.6,67.5,29.60,WSW,248,2.2,5.1,76,0.00,,,0.00,WUHU216HW,2013-10-04 14:58:00,
2013-10-04 11:03:00,75.8,67.3,29.59,West,270,0.4,5.1,75,0.00,,,0.00,WUHU216HW,2013-10-04 15:03:00,
2013-10-04 11:08:00,75.6,67.5,29.59,SW,225,0.0,3.4,76,0.00,,,0.00,WUHU216HW,2013-10-04 15:08:00,
2013-10-04 11:13:00,75.2,67.1,29.59,NNW,338,0.4,0.7,76,0.00,,,0.00,WUHU216HW,2013-10-04 15:13:00,
2013-10-04 11:17:00,75.2,67.1,29.59,NNW,338,0.0,0.7,76,0.00,,,0.00,WUHU216HW,2013-10-04 15:17:00,
2013-10-04 11:22:00,75.2,66.8,29.58,West,270,0.7,2.5,75,0.00,,,0.00,WUHU216HW,2013-10-04 15:22:00,
2013-10-04 11:27:00,75.6,68.0,29.60,North,0,0.0,2.5,77,0.00,,,0.00,WUHU216HW,2013-10-04 15:27:00,
2013-10-04 11:32:00,76.1,68.1,29.61,WSW,248,1.1,2.5,76,0.00,,,0.00,WUHU216HW,2013-10-04 15:32:00,
2013-10-04 11:37:00,76.7,68.1,29.62,WSW,248,3.4,4.5,75,0.00,,,0.00,WUHU216HW,2013-10-04 15:37:00,
2013-10-04 11:42:00,76.5,67.2,29.62,SW,225,4.7,4.7,73,0.00,,,0.00,WUHU216HW,2013-10-04 15:42:00,
2013-10-04 11:47:00,77.0,67.8,29.62,SW,225,3.6,4.7,73,0.00,,,0.00,WUHU216HW,2013-10-04 15:47:00,
2013-10-04 11:52:00,77.6,67.1,29.62,WSW,248,3.8,4.0,70,0.00,,,0.00,WUHU216HW,2013-10-04 15:52:00,
2013-10-04 11:57:00,77.6,67.5,29.63,West,270,4.0,4.0,71,0.00,,,0.00,WUHU216HW,2013-10-04 15:57:00,
2013-10-04 12:02:00,77.0,67.0,29.63,West,270,2.0,4.0,71,0.00,,,0.00,WUHU216HW,2013-10-04 16:02:00,
2013-10-04 12:07:00,77.0,67.3,29.63,West,270,2.5,4.0,72,0.00,,,0.00,WUHU216HW,2013-10-04 16:07:00,
2013-10-04 12:12:00,77.9,66.5,29.62,WSW,248,3.6,4.0,68,0.00,,,0.00,WUHU216HW,2013-10-04 16:12:00,
2013-10-04 12:17:00,78.5,66.6,29.62,West,270,4.7,4.7,67,0.00,,,0.00,WUHU216HW,2013-10-04 16:17:00,
2013-10-04 12:22:00,78.8,67.0,29.62,WSW,248,1.1,4.9,67,0.00,,,0.00,WUHU216HW,2013-10-04 16:22:00,
2013-10-04 12:27:00,78.1,66.7,29.62,SW,225,2.5,4.9,68,0.00,,,0.00,WUHU216HW,2013-10-04 16:27:00,
2013-10-04 12:32:00,78.5,67.1,29.62,SW,225,4.7,4.7,68,0.00,,,0.00,WUHU216HW,2013-10-04 16:32:00,
2013-10-04 12:37:00,78.8,67.3,29.61,NW,315,0.2,4.7,68,0.00,,,0.00,WUHU216HW,2013-10-04 16:37:00,
2013-10-04 12:42:00,79.0,67.2,29.61,West,270,1.1,4.0,67,0.00,,,0.00,WUHU216HW,2013-10-04 16:42:00,
2013-10-04 12:47:00,79.2,66.9,29.60,WSW,248,5.4,5.4,66,0.00,,,0.00,WUHU216HW,2013-10-04 16:47:00,
2013-10-04 12:52:00,79.2,67.7,29.61,WSW,248,3.1,6.5,68,0.00,,,0.00,WUHU216HW,2013-10-04 16:52:00,
2013-10-04 12:57:00,79.7,67.8,29.62,SW,225,1.1,6.5,67,0.00,,,0.00,WUHU216HW,2013-10-04 16:57:00,
2013-10-04 13:02:00,80.3,67.9,29.63,SSW,203,3.8,4.7,66,0.00,,,0.00,WUHU216HW,2013-10-04 17:02:00,
2013-10-04 13:07:00,80.6,68.7,29.63,West,270,1.3,5.4,67,0.00,,,0.00,WUHU216HW,2013-10-04 17:07:00,
2013-10-04 13:12:00,80.3,67.9,29.63,SSW,203,2.5,5.4,66,0.00,,,0.00,WUHU216HW,2013-10-04 17:12:00,
2013-10-04 13:17:00,80.6,68.2,29.63,SSW,203,2.2,4.7,66,0.00,,,0.00,WUHU216HW,2013-10-04 17:17:00,
2013-10-04 13:22:00,80.8,68.0,29.63,WSW,248,3.4,5.4,65,0.00,,,0.00,WUHU216HW,2013-10-04 17:22:00,
2013-10-04 13:27:00,81.0,68.6,29.62,West,270,4.3,5.4,66,0.00,,,0.00,WUHU216HW,2013-10-04 17:27:00,
2013-10-04 13:32:00,81.4,68.9,29.62,NW,315,4.7,4.7,66,0.00,,,0.00,WUHU216HW,2013-10-04 17:32:00,
2013-10-04 13:37:00,82.4,69.8,29.61,SW,225,2.5,6.3,66,0.00,,,0.00,WUHU216HW,2013-10-04 17:37:00,
2013-10-04 14:02:00,82.1,68.6,29.60,WSW,248,2.0,4.0,64,0.00,,,0.00,WUHU216HW,2013-10-04 18:02:00,
2013-10-04 14:07:00,82.1,68.1,29.60,SSW,203,3.4,4.9,63,0.00,,,0.00,WUHU216HW,2013-10-04 18:07:00,
2013-10-04 14:12:00,82.6,69.6,29.60,West,270,2.9,4.9,65,0.00,,,0.00,WUHU216HW,2013-10-04 18:12:00,
2013-10-04 14:17:00,82.6,68.7,29.60,SSW,203,0.2,4.0,63,0.00,,,0.00,WUHU216HW,2013-10-04 18:17:00,
2013-10-04 14:22:00,82.3,68.8,29.60,SW,225,0.2,4.5,64,0.00,,,0.00,WUHU216HW,2013-10-04 18:22:00,
2013-10-04 14:27:00,82.1,68.6,29.60,SW,225,2.2,4.5,64,0.00,,,0.00,WUHU216HW,2013-10-04 18:27:00,
2013-10-04 14:32:00,81.7,68.3,29.60,SW,225,1.1,3.1,64,0.00,,,0.00,WUHU216HW,2013-10-04 18:32:00,
2013-10-04 14:37:00,81.4,68.4,29.60,SW,225,0.4,3.1,65,0.00,,,0.00,WUHU216HW,2013-10-04 18:37:00,
2013-10-04 14:42:00,80.8,67.5,29.59,WNW,293,2.5,2.9,64,0.00,,,0.00,WUHU216HW,2013-10-04 18:42:00,
2013-10-04 14:47:00,80.3,67.4,29.60,West,270,1.6,2.9,65,0.00,,,0.00,WUHU216HW,2013-10-04 18:47:00,
2013-10-04 14:52:00,79.6,67.1,29.60,West,270,1.3,2.9,66,0.00,,,0.00,WUHU216HW,2013-10-04 18:52:00,
2013-10-04 14:57:00,79.4,67.4,29.60,West,270,2.9,2.9,67,0.00,,,0.00,WUHU216HW,2013-10-04 18:57:00,
2013-10-04 15:03:00,78.8,67.0,29.60,West,270,1.1,3.4,67,0.00,,,0.00,WUHU216HW,2013-10-04 19:03:00,
2013-10-04 15:08:00,78.7,67.2,29.60,West,270,2.2,3.4,68,0.00,,,0.00,WUHU216HW,2013-10-04 19:08:00,
2013-10-04 15:13:00,78.5,67.5,29.60,West,270,0.2,2.7,69,0.00,,,0.00,WUHU216HW,2013-10-04 19:13:00,
2013-10-04 15:18:00,78.5,67.9,29.60,WSW,248,2.2,3.4,70,0.00,,,0.00,WUHU216HW,2013-10-04 19:18:00,
2013-10-04 15:23:00,78.5,67.9,29.60,WSW,248,2.0,4.0,70,0.00,,,0.00,WUHU216HW,2013-10-04 19:23:00,
2013-10-04 15:28:00,78.7,68.0,29.60,WSW,248,2.5,4.0,70,0.00,,,0.00,WUHU216HW,2013-10-04 19:28:00,
2013-10-04 15:33:00,78.8,68.2,29.59,WNW,293,1.1,4.0,70,0.00,,,0.00,WUHU216HW,2013-10-04 19:33:00,
2013-10-04 15:38:00,78.7,68.0,29.60,WSW,248,2.2,3.8,70,0.00,,,0.00,WUHU216HW,2013-10-04 19:38:00,
2013-10-04 15:43:00,78.8,68.2,29.60,WNW,293,2.5,4.0,70,0.00,,,0.00,WUHU216HW,2013-10-04 19:43:00,
2013-10-04 15:48:00,78.8,67.8,29.60,West,270,1.8,4.0,69,0.00,,,0.00,WUHU216HW,2013-10-04 19:48:00,
2013-10-04 15:53:00,79.2,68.1,29.59,SW,225,2.2,3.6,69,0.00,,,0.00,WUHU216HW,2013-10-04 19:53:00,
2013-10-04 15:58:00,79.4,68.3,29.58,WSW,248,1.3,4.0,69,0.00,,,0.00,WUHU216HW,2013-10-04 19:58:00,
2013-10-04 16:03:00,79.6,68.5,29.58,WSW,248,1.6,4.0,69,0.00,,,0.00,WUHU216HW,2013-10-04 20:03:00,
2013-10-04 16:08:00,80.3,68.8,29.57,WSW,248,0.4,3.4,68,0.00,,,0.00,WUHU216HW,2013-10-04 20:08:00,
2013-10-04 16:13:00,80.8,69.3,29.59,WSW,248,2.5,2.5,68,0.00,,,0.00,WUHU216HW,2013-10-04 20:13:00,
2013-10-04 16:18:00,82.4,69.8,29.59,West,270,1.6,2.5,66,0.00,,,0.00,WUHU216HW,2013-10-04 20:18:00,
2013-10-04 16:23:00,83.0,70.4,29.58,SSW,203,1.8,2.7,66,0.00,,,0.00,WUHU216HW,2013-10-04 20:23:00,
2013-10-04 16:28:00,85.1,71.1,29.57,SW,225,2.5,2.7,63,0.00,,,0.00,WUHU216HW,2013-10-04 20:28:00,
2013-10-04 16:33:00,84.8,69.8,29.58,WNW,293,1.6,4.0,61,0.00,,,0.00,WUHU216HW,2013-10-04 20:33:00,
2013-10-04 16:38:00,84.4,69.6,29.58,WSW,248,3.6,4.0,61,0.00,,,0.00,WUHU216HW,2013-10-04 20:38:00,
2013-10-04 16:43:00,84.4,69.6,29.58,WSW,248,3.6,3.6,61,0.00,,,0.00,WUHU216HW,2013-10-04 20:43:00,
2013-10-04 17:00:00,80.6,67.8,29.60,WSW,248,1.8,1.8,65,0.00,,,0.00,WUHU216HW,2013-10-04 21:00:00,
2013-10-04 17:05:00,80.6,67.8,29.61,SSW,203,2.0,3.1,65,0.00,,,0.00,WUHU216HW,2013-10-04 21:05:00,
2013-10-04 17:10:00,80.3,67.0,29.61,SW,225,5.1,5.1,64,0.00,,,0.00,WUHU216HW,2013-10-04 21:10:00,
2013-10-04 17:15:00,79.7,66.9,29.61,SW,225,2.5,5.1,65,0.00,,,0.00,WUHU216HW,2013-10-04 21:15:00,
2013-10-04 17:20:00,79.6,67.1,29.61,SW,225,2.0,5.1,66,0.00,,,0.00,WUHU216HW,2013-10-04 21:20:00,
2013-10-04 17:25:00,79.2,66.9,29.61,West,270,1.3,4.0,66,0.00,,,0.00,WUHU216HW,2013-10-04 21:25:00,
2013-10-04 17:30:00,79.0,66.7,29.60,SW,225,1.1,3.4,66,0.00,,,0.00,WUHU216HW,2013-10-04 21:30:00,
2013-10-04 17:35:00,78.8,67.0,29.62,WSW,248,0.4,4.0,67,0.00,,,0.00,WUHU216HW,2013-10-04 21:35:00,
2013-10-04 17:40:00,78.8,67.0,29.62,West,270,0.0,4.0,67,0.00,,,0.00,WUHU216HW,2013-10-04 21:40:00,
2013-10-04 17:45:00,78.8,67.0,29.61,West,270,0.2,1.8,67,0.00,,,0.00,WUHU216HW,2013-10-04 21:45:00,
2013-10-04 17:50:00,78.7,66.8,29.62,SW,225,2.7,3.1,67,0.00,,,0.00,WUHU216HW,2013-10-04 21:50:00,
2013-10-04 17:55:00,78.5,66.6,29.62,SW,225,2.5,3.4,67,0.00,,,0.00,WUHU216HW,2013-10-04 21:55:00,
2013-10-04 18:00:00,78.3,66.4,29.61,WSW,248,2.5,3.4,67,0.00,,,0.00,WUHU216HW,2013-10-04 22:00:00,
2013-10-04 18:05:00,78.1,66.2,29.61,West,270,1.1,3.1,67,0.00,,,0.00,WUHU216HW,2013-10-04 22:05:00,
2013-10-04 18:10:00,77.8,65.9,29.60,WSW,248,0.2,2.5,67,0.00,,,0.00,WUHU216HW,2013-10-04 22:10:00,
2013-10-04 18:15:00,77.6,65.8,29.61,WSW,248,0.7,2.0,67,0.00,,,0.00,WUHU216HW,2013-10-04 22:15:00,
2013-10-04 18:20:00,77.4,66.1,29.61,WSW,248,0.0,2.0,68,0.00,,,0.00,WUHU216HW,2013-10-04 22:20:00,
2013-10-04 18:25:00,77.2,65.9,29.61,WNW,293,0.0,1.1,68,0.00,,,0.00,WUHU216HW,2013-10-04 22:25:00,
2013-10-04 18:30:00,76.7,65.8,29.60,West,270,0.0,1.1,69,0.00,,,0.00,WUHU216HW,2013-10-04 22:30:00,
2013-10-04 18:35:00,76.5,65.6,29.60,WSW,248,1.1,1.6,69,0.00,,,0.00,WUHU216HW,2013-10-04 22:35:00,
2013-10-04 18:40:00,76.1,65.3,29.61,WSW,248,0.0,1.6,69,0.00,,,0.00,WUHU216HW,2013-10-04 22:40:00,
2013-10-04 18:45:00,76.0,65.5,29.61,WSW,248,0.0,0.9,70,0.00,,,0.00,WUHU216HW,2013-10-04 22:45:00,
2013-10-04 18:50:00,75.6,65.2,29.61,WSW,248,0.0,0.9,70,0.00,,,0.00,WUHU216HW,2013-10-04 22:50:00,
2013-10-04 18:55:00,75.2,65.2,29.61,WSW,248,0.0,0.2,71,0.00,,,0.00,WUHU216HW,2013-10-04 22:55:00,
2013-10-04 19:00:00,74.9,64.9,29.60,WSW,248,0.7,0.7,71,0.00,,,0.00,WUHU216HW,2013-10-04 23:00:00,
2013-10-04 19:05:00,74.5,64.9,29.60,WSW,248,0.4,2.2,72,0.00,,,0.00,WUHU216HW,2013-10-04 23:05:00,
2013-10-04 19:10:00,74.2,64.6,29.61,West,270,0.0,2.2,72,0.00,,,0.00,WUHU216HW,2013-10-04 23:10:00,
2013-10-04 19:15:00,74.0,64.5,29.61,West,270,0.0,1.6,72,0.00,,,0.00,WUHU216HW,2013-10-04 23:15:00,
2013-10-04 19:20:00,73.8,64.6,29.61,SW,225,1.3,1.8,73,0.00,,,0.00,WUHU216HW,2013-10-04 23:20:00,
2013-10-04 19:25:00,73.6,64.4,29.61,South,180,0.0,1.8,73,0.00,,,0.00,WUHU216HW,2013-10-04 23:25:00,
2013-10-04 19:30:00,73.4,64.7,29.63,West,270,0.2,1.8,74,0.00,,,0.00,WUHU216HW,2013-10-04 23:30:00,
2013-10-04 19:35:00,73.3,64.9,29.63,WSW,248,0.4,1.8,75,0.00,,,0.00,WUHU216HW,2013-10-04 23:35:00,
2013-10-04 19:40:00,73.1,64.7,29.62,WSW,248,0.0,1.8,75,0.00,,,0.00,WUHU216HW,2013-10-04 23:40:00,
2013-10-04 19:45:00,73.1,64.7,29.61,WSW,248,0.0,1.3,75,0.00,,,0.00,WUHU216HW,2013-10-04 23:45:00,
2013-10-04 19:50:00,72.9,64.9,29.62,WSW,248,0.4,0.7,76,0.00,,,0.00,WUHU216HW,2013-10-04 23:50:00,
2013-10-04 19:55:00,72.7,65.1,29.62,West,270,0.0,1.1,77,0.00,,,0.00,WUHU216HW,2013-10-04 23:55:00,
2013-10-04 20:00:00,72.4,64.7,29.62,West,270,0.0,1.1,77,0.00,,,0.00,WUHU216HW,2013-10-05 00:00:00,
2013-10-04 20:05:00,72.2,64.5,29.62,West,270,0.0,0.0,77,0.00,,,0.00,WUHU216HW,2013-10-05 00:05:00,
2013-10-04 20:10:00,72.0,64.4,29.62,West,270,0.0,0.4,77,0.00,,,0.00,WUHU216HW,2013-10-05 00:10:00,
2013-10-04 20:15:00,71.8,64.6,29.63,West,270,0.0,2.5,78,0.00,,,0.00,WUHU216HW,2013-10-05 00:15:00,
2013-10-04 20:20:00,71.6,64.8,29.62,WSW,248,0.0,2.5,79,0.00,,,0.00,WUHU216HW,2013-10-05 00:20:00,
2013-10-04 20:25:00,71.8,65.0,29.62,SW,225,0.0,2.5,79,0.00,,,0.00,WUHU216HW,2013-10-05 00:25:00,
2013-10-04 20:30:00,71.8,65.0,29.61,SW,225,0.0,2.5,79,0.00,,,0.00,WUHU216HW,2013-10-05 00:30:00,
2013-10-04 20:35:00,71.8,65.3,29.63,WSW,248,1.3,1.8,80,0.00,,,0.00,WUHU216HW,2013-10-05 00:35:00,
2013-10-04 20:40:00,71.6,65.2,29.63,West,270,1.8,1.8,80,0.00,,,0.00,WUHU216HW,2013-10-05 00:40:00,
2013-10-04 20:45:00,71.6,65.2,29.63,WSW,248,1.1,1.8,80,0.00,,,0.00,WUHU216HW,2013-10-05 00:45:00,
2013-10-04 20:50:00,71.6,65.2,29.63,SSW,203,0.9,1.8,80,0.00,,,0.00,WUHU216HW,2013-10-05 00:50:00,
2013-10-04 20:55:00,71.6,65.2,29.63,WSW,248,0.2,2.5,80,0.00,,,0.00,WUHU216HW,2013-10-05 00:55:00,
2013-10-04 21:00:00,71.6,65.5,29.63,SSW,203,0.4,2.5,81,0.00,,,0.00,WUHU216HW,2013-10-05 01:00:00,
2013-10-04 21:05:00,71.6,65.5,29.63,WSW,248,0.2,1.1,81,0.00,,,0.00,WUHU216HW,2013-10-05 01:05:00,
2013-10-04 21:10:00,71.5,65.7,29.63,WSW,248,0.4,2.2,82,0.00,,,0.00,WUHU216HW,2013-10-05 01:10:00,
2013-10-04 21:15:00,71.3,65.5,29.63,SW,225,2.0,2.7,82,0.00,,,0.00,WUHU216HW,2013-10-05 01:15:00,
2013-10-04 21:20:00,71.1,65.4,29.63,SSW,203,0.0,2.7,82,0.00,,,0.00,WUHU216HW,2013-10-05 01:20:00,
2013-10-04 21:25:00,70.9,65.2,29.62,SW,225,0.9,2.2,82,0.00,,,0.00,WUHU216HW,2013-10-05 01:25:00,
2013-10-04 21:30:00,70.7,65.3,29.62,SW,225,0.0,0.9,83,0.00,,,0.00,WUHU216HW,2013-10-05 01:30:00,
2013-10-04 21:35:00,70.4,64.9,29.63,SW,225,0.0,0.9,83,0.00,,,0.00,WUHU216HW,2013-10-05 01:35:00,
2013-10-04 21:40:00,70.2,64.7,29.63,SW,225,0.9,1.3,83,0.00,,,0.00,WUHU216HW,2013-10-05 01:40:00,
2013-10-04 21:45:00,69.8,64.4,29.61,West,270,0.0,1.3,83,0.00,,,0.00,WUHU216HW,2013-10-05 01:45:00,
2013-10-04 21:50:00,69.7,64.5,29.62,West,270,0.0,1.3,84,0.00,,,0.00,WUHU216HW,2013-10-05 01:50:00,
2013-10-04 21:55:00,69.5,64.4,29.63,West,270,0.0,1.3,84,0.00,,,0.00,WUHU216HW,2013-10-05 01:55:00,
2013-10-04 22:00:00,69.5,64.4,29.63,NNW,338,0.0,1.3,84,0.00,,,0.00,WUHU216HW,2013-10-05 02:00:00,
2013-10-04 22:05:00,69.3,64.3,29.62,NNW,338,0.0,1.1,84,0.00,,,0.00,WUHU216HW,2013-10-05 02:05:00,
2013-10-04 22:10:00,69.1,64.1,29.62,NNW,338,0.0,0.0,84,0.00,,,0.00,WUHU216HW,2013-10-05 02:10:00,
2013-10-04 22:15:00,68.9,63.9,29.63,NNW,338,0.0,0.0,84,0.00,,,0.00,WUHU216HW,2013-10-05 02:15:00,
2013-10-04 22:20:00,68.9,64.3,29.63,NNW,338,0.0,0.0,85,0.00,,,0.00,WUHU216HW,2013-10-05 02:20:00,
2013-10-04 22:25:00,68.8,64.4,29.63,NNW,338,0.0,0.0,86,0.00,,,0.00,WUHU216HW,2013-10-05 02:25:00,
2013-10-04 22:30:00,68.8,64.4,29.63,NNW,338,0.0,0.0,86,0.00,,,0.00,WUHU216HW,2013-10-05 02:30:00,
2013-10-04 22:35:00,68.8,64.4,29.64,NNW,338,0.0,0.0,86,0.00,,,0.00,WUHU216HW,2013-10-05 02:35:00,
2013-10-04 22:40:00,68.6,64.2,29.64,NNW,338,0.0,0.0,86,0.00,,,0.00,WUHU216HW,2013-10-05 02:40:00,
2013-10-04 22:45:00,68.4,64.0,29.64,NNW,338,0.0,0.0,86,0.00,,,0.00,WUHU216HW,2013-10-05 02:45:00,
2013-10-04 22:50:00,68.4,64.0,29.64,NNW,338,0.0,0.0,86,0.00,,,0.00,WUHU216HW,2013-10-05 02:50:00,
2013-10-04 22:55:00,68.2,63.9,29.64,NNW,338,0.0,0.0,86,0.00,,,0.00,WUHU216HW,2013-10-05 02:55:00,
2013-10-04 23:00:00,68.2,63.9,29.63,NNW,338,0.0,0.0,86,0.00,,,0.00,WUHU216HW,2013-10-05 03:00:00,
2013-10-04 23:05:00,68.0,64.0,29.64,NNW,338,0.0,0.0,87,0.00,,,0.00,WUHU216HW,2013-10-05 03:05:00,
2013-10-04 23:10:00,67.9,63.8,29.64,West,270,0.0,1.1,87,0.00,,,0.00,WUHU216HW,2013-10-05 03:10:00,
2013-10-04 23:15:00,67.9,63.8,29.63,West,270,0.0,1.1,87,0.00,,,0.00,WUHU216HW,2013-10-05 03:15:00,
2013-10-04 23:20:00,67.7,63.6,29.63,West,270,0.0,0.0,87,0.00,,,0.00,WUHU216HW,2013-10-05 03:20:00,
2013-10-04 23:25:00,67.5,63.5,29.63,West,270,0.0,0.0,87,0.00,,,0.00,WUHU216HW,2013-10-05 03:25:00,
2013-10-04 23:30:00,67.5,63.5,29.63,West,270,0.0,0.7,87,0.00,,,0.00,WUHU216HW,2013-10-05 03:30:00,
2013-10-04 23:35:00,67.3,63.6,29.63,West,270,0.2,1.1,88,0.00,,,0.00,WUHU216HW,2013-10-05 03:35:00,
2013-10-04 23:40:00,67.3,63.6,29.63,West,270,0.0,1.1,88,0.00,,,0.00,WUHU216HW,2013-10-05 03:40:00,
2013-10-04 23:45:00,67.1,63.5,29.64,West,270,0.0,0.2,88,0.00,,,0.00,WUHU216HW,2013-10-05 03:45:00,
2013-10-04 23:50:00,67.0,63.3,29.64,West,270,0.0,0.2,88,0.00,,,0.00,WUHU216HW,2013-10-05 03:50:00,
2013-10-04 23:55:00,66.8,63.1,29.64,West,270,0.0,0.2,88,0.00,,,0.00,WUHU216HW,2013-10-05 03:55:00,